Weather History for KLWD - September, 2014

Change the Weather History Date:

Tuesday, September 16, 2014

  Actual Average Record
Temperature  
Mean Temperature 55 °F 65 °F  
Max Temperature 67 °F 76 °F 90 °F (1978)
Min Temperature 43 °F 54 °F 41 °F (1984)
Degree Days  
Heating Degree Days 10 3  
Month to date heating degree days 80 24  
Since 1 July heating degree days 87 32  
Cooling Degree Days 0 3  
Month to date cooling degree days 49 70  
Year to date cooling degree days 866 908  
Growing Degree Days 6 (Base 50)    
Moisture  
Dew Point 46 °F    
Average Humidity 73    
Maximum Humidity 93    
Minimum Humidity 52    
Precipitation  
Precipitation 0.00 in 0.09 in 1.35 in (1987)
Month to date precipitation 4.55 2.11  
Sea Level Pressure  
Sea Level Pressure 30.19 in    
Wind  
Wind Speed 4 mph (ESE)    
Max Wind Speed 9 mph    
Max Gust Speed 13 mph    
Visibility 10 miles    
Events      
T = Trace of Precipitation, MM = Missing Value Source: NWS Daily Summary

Daily Weather History Graph

Daily Weather History Graph

Search for Another Location

Airport or City:

Trip Planner

Search our weather history database for the weather conditions in past years. The results will help you decide how hot, cold, wet, or windy it might be!

Date:

Astronomy

Sep. 16, 2014 Rise Set
Actual Time 6:57 AM CDT 7:22 PM CDT
Civil Twilight 6:29 AM CDT 7:50 PM CDT
Nautical Twilight 5:57 AM CDT 8:22 PM CDT
Astronomical Twilight 5:24 AM CDT 8:55 PM CDT
Moon 12:06 AM CDT (9/16) 2:48 PM CDT (9/16)
Length of Visible Light 13h 20m
Length of Day
12h 25m
Last Quarter, 44% of the Moon is Illuminated
Sep 16
Last Quarter
Sep 24
New
Oct 1
First Quarter
Oct 8
Full
Oct 15
Last Quarter

Hourly Weather History & Observations

Time (CDT) Temp. Windchill Dew Point Humidity Pressure Visibility Wind Dir Wind Speed Gust Speed Precip Events Conditions
12:53 AM 48.0 °F - 45.0 °F 89% 30.26 in 10.0 mi North 5.8 mph - N/A   Clear
1:53 AM 46.9 °F - 45.0 °F 93% 30.26 in 10.0 mi Calm Calm - N/A   Clear
2:53 AM 46.0 °F 44.8 °F 44.1 °F 93% 30.27 in 10.0 mi NNW 3.5 mph - N/A   Clear
3:53 AM 45.0 °F 43.5 °F 42.1 °F 90% 30.27 in 10.0 mi NNW 3.5 mph - N/A   Clear
4:53 AM 46.0 °F 44.8 °F 43.0 °F 89% 30.27 in 10.0 mi North 3.5 mph - N/A   Clear
5:53 AM 46.0 °F 44.8 °F 43.0 °F 89% 30.26 in 10.0 mi North 3.5 mph - N/A   Clear
6:53 AM 45.0 °F 43.5 °F 42.1 °F 90% 30.26 in 9.0 mi North 3.5 mph - N/A   Clear
7:53 AM 46.9 °F - 44.1 °F 90% 30.27 in 7.0 mi Calm Calm - N/A   Clear
8:53 AM 53.1 °F - 48.9 °F 86% 30.26 in 10.0 mi Calm Calm - N/A   Clear
9:53 AM 57.0 °F - 48.9 °F 74% 30.26 in 10.0 mi East 3.5 mph - N/A   Clear
10:53 AM 57.9 °F - 44.1 °F 60% 30.24 in 10.0 mi SSE 5.8 mph - N/A   Clear
11:53 AM 60.1 °F - 45.0 °F 57% 30.22 in 10.0 mi South 6.9 mph - N/A   Scattered Clouds
12:53 PM 62.1 °F - 46.0 °F 56% 30.20 in 10.0 mi Calm Calm - N/A   Clear
1:53 PM 63.0 °F - 46.0 °F 54% 30.17 in 10.0 mi Calm Calm - N/A   Clear
2:53 PM 64.0 °F - 46.9 °F 54% 30.14 in 10.0 mi Variable 3.5 mph - N/A   Clear
3:53 PM 64.9 °F - 46.9 °F 52% 30.12 in 10.0 mi South 4.6 mph - N/A   Clear
4:53 PM 66.0 °F - 48.0 °F 52% 30.09 in 10.0 mi Variable 6.9 mph - N/A   Clear
5:53 PM 64.9 °F - 48.9 °F 56% 30.08 in 10.0 mi SSE 5.8 mph - N/A   Clear
6:53 PM 63.0 °F - 50.0 °F 63% 30.07 in 10.0 mi SE 3.5 mph - N/A   Clear
7:53 PM 60.1 °F - 50.0 °F 69% 30.06 in 10.0 mi SE 3.5 mph - N/A   Clear
9:53 PM 57.0 °F - 48.9 °F 74% 30.06 in 10.0 mi SE 3.5 mph - N/A   Clear
11:53 PM 57.0 °F - 50.0 °F 77% 30.05 in 10.0 mi SSE 5.8 mph - N/A   Mostly Cloudy